Location: Darlington Observatory
(36.4817°N, 105.8156°W)
Time: 05:24:25
(UTC-07:00)

MOS 1 - Visible Passes

Search period start: 26 January 2015 00:00
Search period end: 05 February 2015 00:00
Orbit: 879 x 892 km, 99.2° (Epoch: 25 January)

Date Brightness Start Highest point End Pass type
(mag) Time Alt. Az. Time Alt. Az. Time Alt. Az.
26 Jan 7.2 03:31:23 10° ENE 03:32:26 11° E 03:33:57 10° ESE visible
26 Jan 4.1 05:08:56 10° NNE 05:14:37 84° WNW 05:20:15 10° SSW visible
27 Jan 7.2 03:30:21 10° E 03:30:49 10° E 03:31:45 10° E visible
27 Jan 4.2 05:07:20 10° NNE 05:13:01 86° WNW 05:18:40 10° SSW visible
28 Jan 4.2 05:05:44 10° NNE 05:11:25 89° WNW 05:17:04 10° SSW visible
29 Jan 4.2 05:04:08 10° NNE 05:09:49 88° ESE 05:15:28 10° SSW visible
30 Jan 4.2 05:02:32 10° NNE 05:08:13 85° ESE 05:13:52 10° SSW visible
31 Jan 4.3 05:00:57 10° NNE 05:06:37 83° ESE 05:12:16 10° SSW visible
01 Feb 4.3 04:59:20 10° NNE 05:05:01 80° ESE 05:10:39 10° S visible
02 Feb 4.3 04:57:44 10° NNE 05:03:24 77° ESE 05:09:03 10° S visible
03 Feb 4.4 04:56:08 10° NNE 05:01:48 74° ESE 05:07:26 10° S visible
04 Feb 4.4 04:54:33 10° NNE 05:00:11 72° ESE 05:05:49 10° S visible
04 Feb 5.8 06:37:50 10° NNW 06:41:01 15° WNW 06:43:55 10° W visible
